Weather History for Destin, FL

Change the Weather History Date:

Thursday, April 24, 2014

  Actual Average Record
Temperature  
Mean Temperature 70 °F -  
Max Temperature 77 °F 74 °F 84 °F (1999)
Min Temperature 64 °F 60 °F 51 °F (2005)
Cooling Degree Days 4    
Growing Degree Days 20 (Base 50)    
Moisture  
Dew Point 65 °F    
Average Humidity 80    
Maximum Humidity 94    
Minimum Humidity 69    
Precipitation  
Precipitation 0.00 in - - ()
Sea Level Pressure  
Sea Level Pressure 29.96 in    
Wind  
Wind Speed 3 mph (SSW)    
Max Wind Speed 9 mph    
Max Gust Speed -    
Visibility 7 miles    
Events Fog    
Averages and records for this station are not official NWS values.
T = Trace of Precipitation, MM = Missing Value Source: NWS Daily Summary

Daily Weather History Graph

Daily Weather History Graph

Search for Another Location

Airport:

Trip Planner

Search our weather history database for the weather conditions in past years. The results will help you decide how hot, cold, wet, or windy it might be!

Date:

Astronomy

Apr. 24, 2014 Rise Set
Actual Time 6:09 AM CDT 7:19 PM CDT
Civil Twilight 5:44 AM CDT 7:44 PM CDT
Nautical Twilight 5:14 AM CDT 8:14 PM CDT
Astronomical Twilight 4:43 AM CDT 8:45 PM CDT
Moon 2:58 AM CDT (4/24) 2:53 PM CDT (4/24)
Length of Visible Light 14h 00m
Length of Day
13h 10m
Waning Crescent, 24% of the Moon is Illuminated
Apr 24
Waning Crescent
Apr 29
New
May 6
First Quarter
May 14
Full
May 21
Last Quarter

Hourly Weather History & Observations

Time (CDT) Temp. Dew Point Humidity Pressure Visibility Wind Dir Wind Speed Gust Speed Precip Events Conditions
12:53 AM 70.0 °F 66.0 °F 87% 29.93 in 7.0 mi Variable 3.5 mph - N/A   Scattered Clouds
1:53 AM 69.1 °F 66.0 °F 90% 29.92 in 5.0 mi SW 3.5 mph - N/A   Partly Cloudy
2:53 AM 69.1 °F 66.0 °F 90% 29.93 in 5.0 mi Calm Calm - N/A   Clear
3:28 AM 69.1 °F 66.0 °F 90% 29.93 in 4.0 mi Calm Calm - N/A   Partly Cloudy
3:49 AM 68.0 °F 66.2 °F 94% 29.94 in 3.0 mi Calm Calm - N/A   Mostly Cloudy
3:53 AM 69.1 °F 66.0 °F 90% 29.94 in 3.0 mi Calm Calm - N/A   Mostly Cloudy
4:53 AM 68.0 °F 66.0 °F 93% 29.94 in 3.0 mi Calm Calm - N/A   Mostly Cloudy
5:18 AM 68.0 °F 64.9 °F 90% 29.93 in 4.0 mi Calm Calm - N/A   Scattered Clouds
5:31 AM 66.9 °F 64.0 °F 90% 29.94 in 1.5 mi Calm Calm - N/A   Clear
5:34 AM 66.0 °F 63.0 °F 90% 29.94 in 1.0 mi Calm Calm - N/A   Mist
5:41 AM 64.9 °F 62.1 °F 90% 29.94 in 0.5 mi Calm Calm - N/A Fog Fog
5:49 AM 66.2 °F 62.6 °F 88% 29.95 in 1.2 mi Calm Calm - N/A   Partly Cloudy
5:53 AM 66.0 °F 63.0 °F 90% 29.95 in 2.5 mi Calm Calm - N/A   Partly Cloudy
6:15 AM 66.0 °F 63.0 °F 90% 29.96 in 0.8 mi Calm Calm - N/A   Mostly Cloudy
6:25 AM 66.9 °F 64.0 °F 90% 29.96 in 2.0 mi Calm Calm - N/A   Mostly Cloudy
6:39 AM 66.9 °F 64.9 °F 93% 29.97 in 3.0 mi Calm Calm - N/A   Overcast
6:53 AM 68.0 °F 64.9 °F 90% 29.98 in 3.0 mi Calm Calm - N/A   Overcast
7:26 AM 70.0 °F 66.9 °F 90% 29.99 in 4.0 mi Calm Calm - N/A   Scattered Clouds
7:53 AM 71.1 °F 66.0 °F 84% 29.99 in 7.0 mi Calm Calm - N/A   Scattered Clouds
8:00 AM 71.1 °F 64.9 °F 81% 29.99 in 7.0 mi Calm Calm - N/A   Mostly Cloudy
8:34 AM 73.0 °F 66.9 °F 81% 29.99 in 8.0 mi Calm Calm - N/A   Scattered Clouds
8:53 AM 72.0 °F 64.9 °F 78% 29.99 in 8.0 mi South 4.6 mph - N/A   Clear
9:53 AM 73.0 °F 64.9 °F 76% 30.01 in 7.0 mi SSE 6.9 mph - N/A   Clear
10:53 AM 73.0 °F 66.0 °F 79% 30.01 in 7.0 mi Variable 4.6 mph - N/A   Clear
11:01 AM 73.0 °F 64.9 °F 76% 30.02 in 7.0 mi SSW 4.6 mph - N/A   Scattered Clouds
11:18 AM 73.0 °F 64.9 °F 76% 30.02 in 7.0 mi Variable 5.8 mph - N/A   Mostly Cloudy
11:33 AM 73.0 °F 64.9 °F 76% 30.02 in 7.0 mi SSW 8.1 mph - N/A   Mostly Cloudy
11:53 AM 73.9 °F 64.9 °F 73% 30.01 in 8.0 mi SSW 8.1 mph - N/A   Mostly Cloudy
12:04 PM 75.0 °F 64.9 °F 71% 30.01 in 8.0 mi South 9.2 mph - N/A   Partly Cloudy
12:53 PM 75.0 °F 64.0 °F 69% 29.99 in 8.0 mi South 8.1 mph - N/A   Partly Cloudy
1:23 PM 75.0 °F 64.0 °F 69% 29.99 in 9.0 mi SSW 4.6 mph - N/A   Mostly Cloudy
1:49 PM 73.4 °F 64.4 °F 73% 29.99 in 9.0 mi SSW 8.1 mph - N/A   Partly Cloudy
1:53 PM 75.0 °F 64.9 °F 71% 29.99 in 9.0 mi Variable 5.8 mph - N/A   Partly Cloudy
2:25 PM 75.0 °F 64.9 °F 71% 29.98 in 9.0 mi South 9.2 mph - N/A   Mostly Cloudy
2:40 PM 75.0 °F 64.9 °F 71% 29.97 in 2.5 mi SSW 8.1 mph - N/A   Haze
2:53 PM 75.0 °F 64.9 °F 71% 29.97 in 9.0 mi SSW 8.1 mph - N/A   Scattered Clouds
3:23 PM 75.9 °F 64.9 °F 69% 29.97 in 10.0 mi Variable 5.8 mph - N/A   Mostly Cloudy
3:33 PM 75.9 °F 64.9 °F 69% 29.96 in 10.0 mi Variable 6.9 mph - N/A   Scattered Clouds
3:41 PM 75.0 °F 64.9 °F 71% 29.96 in 10.0 mi Variable 5.8 mph - N/A   Mostly Cloudy
3:48 PM 75.2 °F 64.4 °F 69% 29.96 in 10.0 mi SSW 8.1 mph - N/A   Scattered Clouds
3:53 PM 75.0 °F 64.9 °F 71% 29.96 in 10.0 mi Variable 6.9 mph - N/A   Scattered Clouds
4:37 PM 75.0 °F 64.9 °F 71% 29.96 in 10.0 mi Variable 6.9 mph - N/A   Mostly Cloudy
4:53 PM 75.0 °F 64.9 °F 71% 29.96 in 10.0 mi Variable 6.9 mph - N/A   Mostly Cloudy
5:10 PM 75.0 °F 64.9 °F 71% 29.95 in 10.0 mi SSW 6.9 mph - N/A   Partly Cloudy
5:53 PM 73.0 °F 64.0 °F 73% 29.95 in 10.0 mi SSW 8.1 mph - N/A   Partly Cloudy
6:53 PM 73.0 °F 64.9 °F 76% 29.93 in 10.0 mi Variable 5.8 mph - N/A   Scattered Clouds
7:02 PM 73.0 °F 64.9 °F 76% 29.93 in 10.0 mi South 4.6 mph - N/A   Mostly Cloudy
7:53 PM 72.0 °F 64.9 °F 78% 29.93 in 10.0 mi SSW 8.1 mph - N/A   Mostly Cloudy
8:50 PM 71.6 °F 66.2 °F 83% 29.94 in 10.0 mi South 6.9 mph - N/A   Scattered Clouds
8:53 PM 72.0 °F 66.9 °F 84% 29.94 in 10.0 mi South 6.9 mph - N/A   Mostly Cloudy
9:20 PM 72.0 °F 66.9 °F 84% 29.95 in 9.0 mi South 5.8 mph - N/A   Overcast
9:53 PM 72.0 °F 66.9 °F 84% 29.94 in 9.0 mi South 8.1 mph - N/A   Mostly Cloudy
10:53 PM 72.0 °F 68.0 °F 87% 29.95 in 9.0 mi Variable 5.8 mph - N/A   Overcast
11:53 PM 71.1 °F 66.9 °F 87% 29.95 in 8.0 mi SSW 5.8 mph - N/A   Mostly Cloudy